SCP
0 0 0 0 0 0 0 0 0 0 0 0 0 0 0 0 0 0 1 1 1 1 1 1 1 1 1 1 1 1 1 1 1 1 1 0 0 0 0 0 0 0 0 0
0 0 0 0 0 0 0 0 0 0 0 0 0 0 0 0 0 0 1 1 1 1 1 1 1 1 1 1 1 1 1 1 1 1 1 1 0 0 0 0 0 0 0 0
0 0 0 0 0 0 0 0 0 0 0 0 0 0 0 0 0 0 0 1 1 1 1 1 1 1 1 1 1 1 1 1 1 1 1 1 0 0 0 0 0 0 0 0
0 0 0 0 0 0 0 0 0 0 0 0 0 0 0 0 0 0 0 0 1 1 1 1 1 1 1 1 1 1 1 1 1 1 1 1 0 0 0 0 0 0 0 0
0 0 0 0 0 0 0 0 0 0 0 0 0 0 0 0 0 0 0 0 0 1 1 1 1 1 1 1 1 1 1 1 1 1 1 1 1 0 0 0 0 0 0 0
0 0 0 0 0 0 0 0 0 0 0 0 0 0 0 0 0 0 0 0 0 1 1 1 1 1 1 1 1 1 1 1 1 1 1 1 1 1 0 0 0 0 0 0
0 0 0 0 0 0 0 0 0 0 0 0 0 0 0 0 0 0 0 0 1 1 1 1 1 1 1 1 1 1 1 1 1 1 1 1 1 1 0 0 0 0 0 0
0 0 0 0 0 0 0 0 0 0 0 0 0 0 0 0 0 0 1 1 1 1 1 1 1 1 1 1 1 1 1 1 1 1 1 1 1 1 0 0 0 0 0 0
0 0 0 0 0 0 0 0 0 0 0 0 0 0 0 0 0 1 1 1 1 1 1 1 1 1 1 1 1 1 1 1 1 1 1 1 1 0 0 0 0 0 0 0
0 0 0 0 0 0 0 0 0 0 0 0 0 0 0 0 1 1 1 1 1 1 1 1 2 1 1 1 1 1 1 1 1 1 1 1 1 0 0 0 0 0 0 0
0 0 0 0 0 0 0 0 0 0 0 0 0 0 0 1 1 1 1 1 1 1 1 1 1 1 1 1 1 1 1 1 1 1 1 1 0 0 0 0 0 0 0 0
0 0 0 0 0 0 0 0 0 0 0 0 0 0 0 1 1 1 1 1 1 1 1 1 1 1 1 1 1 1 1 1 1 1 1 0 0 0 0 0 0 0 0 0
0 0 0 0 0 0 0 0 0 0 0 0 0 0 0 1 1 1 1 1 1 1 1 1 1 1 1 1 1 1 1 1 1 1 0 0 0 0 0 0 0 0 0 0
0 0 0 0 0 0 0 0 0 0 0 0 0 0 1 1 1 1 1 1 1 1 1 1 1 1 1 1 1 1 1 1 1 0 0 0 0 0 0 0 0 0 0 0
0 0 0 0 0 0 0 0 0 0 0 0 0 0 1 1 1 0 0 0 1 1 1 1 1 1 1 1 1 1 1 1 0 0 0 0 0 0 0 0 0 0 0 0
0 0 0 0 0 0 0 0 0 0 0 0 0 0 1 0 0 0 0 0 1 1 1 1 1 1 1 1 1 1 0 0 0 0 0 0 0 0 0 0 0 0 0 0
0 0 0 0 0 0 0 0 0 0 0 0 0 0 0 0 0 0 0 0 0 0 1 1 1 1 1 1 0 0 0 0 0 0 0 0 0 0 0 0 0 0 0 0
0 0 0 0 0 0 0 0 0 0 0 0 0 0 0 0 0 0 0 0 0 0 0 0 0 0 0 0 0 0 0 0 0 0 0 0 0 0 0 0 0 0 0 0
0 0 0 0 0 0 0 0 0 0 0 0 0 0 0 0 0 0 0 0 0 0 0 0 0 0 0 0 0 0 0 0 0 0 0 0 0 0 0 0 0 0 0 0
0 0 0 0 0 0 0 0 0 0 0 0 0 0 0 0 0 0 0 0 0 0 0 0 0 0 0 0 0 0 0 0 0 0 0 0 0 0 0 0 0 0 0 0
0 0 0 0 0 0 0 0 0 0 0 0 0 0 0 0 0 0 0 0 0 0 0 0 0 0 0 0 0 0 0 0 0 0 0 0 0 0 0 0 0 0 0 0
0 0 0 0 0 0 0 0 0 0 0 0 0 0 0 0 0 0 0 0 0 0 0 0 0 0 0 0 0 0 0 0 0 0 0 0 0 0 0 0 0 0 0 0
0 0 0 0 0 0 0 0 0 0 0 0 0 0 0 0 0 0 0 0 0 0 0 0 0 0 0 0 0 0 0 0 0 0 0 0 0 0 0 0 0 0 0 0
0 0 0 0 0 0 0 0 0 0 0 0 0 0 0 0 0 0 0 0 0 0 0 0 0 0 0 0 0 0 0 0 0 0 0 0 0 0 0 0 0 0 0 0
0 0 0 0 0 0 0 0 0 0 0 0 0 0 0 0 0 0 0 0 0 0 0 0 0 0 0 0 0 0 0 0 0 0 0 0 0 0 0 0 0 0 0 0
0 0 0 0 0 0 0 0 0 0 0 0 0 0 0 0 0 0 0 0 0 0 0 0 0 0 0 0 0 0 0 0 0 0 0 0 0 0 0 0 0 0 0 -0
0 0 0 0 0 0 0 0 0 0 0 0 0 0 0 0 0 0 0 0 0 0 0 0 0 0 0 0 0 0 0 0 0 0 0 0 0 0 0 0 0 0 -0 -0
Wind_Speed
3 4 2 3 4 3 4 7 7 8 8 7 7 7 7 7 6 6 7 8 8 7 6 6 7 7 8 8 8 8 8 8 8 7 6 5 5 5 5 5 6 5 5 4
3 3 3 3 4 2 2 4 5 5 5 6 5 4 5 6 7 7 7 9 9 8 8 8 8 8 8 8 8 8 8 8 7 6 6 6 6 6 6 5 5 5 5 5
3 5 4 4 3 2 1 2 5 6 7 4 4 5 6 7 8 8 8 7 8 9 8 7 8 8 8 7 7 8 8 7 6 7 6 6 6 6 6 5 5 5 5 4
1 3 3 8 4 2 3 2 1 2 3 5 6 7 6 5 6 5 6 6 6 6 6 6 6 6 6 6 7 7 7 6 6 7 6 6 5 6 5 4 5 5 5 5
3 2 5 6 4 0 3 2 3 3 2 3 3 4 2 1 4 4 5 6 6 6 6 6 7 7 7 6 6 6 6 7 7 7 6 6 6 6 5 4 4 4 4 4
3 3 4 6 7 2 5 2 4 3 3 3 4 3 3 2 3 3 3 3 5 5 5 6 6 7 8 7 7 7 7 7 6 6 7 6 6 5 4 4 4 4 3 4
4 4 5 6 7 4 3 4 3 1 3 3 3 5 4 2 4 5 4 4 4 6 6 6 6 7 7 7 8 7 6 6 5 6 6 6 4 4 4 4 4 4 4 3
2 2 6 6 4 2 4 3 0 1 1 2 2 2 3 4 5 5 5 4 4 5 5 5 6 7 7 6 6 5 6 6 5 5 5 5 4 4 4 4 4 4 3 3
4 5 5 2 1 2 2 1 0 1 0 2 3 2 3 4 4 4 4 4 3 5 5 4 5 7 7 5 4 5 6 6 5 5 4 4 5 5 4 4 4 3 3 3
1 2 3 3 3 3 2 1 1 0 1 2 2 3 3 3 3 3 3 4 3 4 5 4 4 5 5 5 5 6 6 5 5 5 4 4 3 4 4 4 4 4 4 4
2 4 4 4 4 4 4 4 3 2 1 2 3 3 3 3 3 2 2 3 3 4 5 5 4 3 3 4 5 5 5 5 5 4 5 4 3 3 4 4 6 6 5 4
5 5 2 5 5 4 4 4 3 2 2 0 3 3 3 3 3 3 3 3 3 3 4 4 4 4 3 4 5 6 4 4 4 4 4 3 3 1 0 1 3 6 6 5
5 4 3 4 4 4 3 4 3 1 1 0 1 3 3 2 2 3 3 3 3 3 3 4 3 3 3 3 5 5 5 4 4 4 4 4 4 4 2 1 1 1 4 6
3 1 3 4 5 5 4 4 3 1 0 1 2 2 3 3 3 3 3 3 3 3 3 4 4 2 2 3 4 4 4 4 4 4 4 4 4 4 4 4 2 1 2 4
4 3 4 4 4 4 4 2 1 2 2 2 1 2 4 4 3 3 3 2 2 3 3 3 4 3 3 4 4 4 4 3 3 3 3 4 4 4 4 4 3 2 1 1
3 2 1 2 2 3 3 2 1 1 1 1 0 2 4 4 4 3 3 3 3 3 3 4 4 4 4 4 5 4 3 5 5 3 3 3 3 4 4 4 3 3 3 2
2 2 2 2 3 3 3 3 2 2 2 1 2 3 3 3 2 2 2 3 4 4 4 4 4 4 4 4 4 3 3 4 5 3 3 3 3 4 4 4 4 4 3 3
4 4 4 4 4 3 3 3 2 2 2 3 3 2 3 4 4 4 4 3 2 1 2 3 4 3 3 3 3 3 3 3 3 3 3 3 4 4 4 4 4 4 3 3
3 3 4 4 3 2 2 2 2 2 2 2 2 3 3 3 3 4 3 3 3 3 4 3 4 4 3 3 3 2 3 3 3 3 3 4 4 3 4 4 4 4 3 3
3 3 2 3 3 2 2 2 2 1 2 2 2 2 2 2 3 3 3 3 4 4 4 3 4 3 3 3 3 3 3 3 4 3 3 3 4 4 4 4 4 4 3 3
3 3 2 2 3 3 2 2 1 2 2 1 2 3 3 3 3 3 3 3 3 3 3 5 4 3 3 3 4 3 3 3 4 4 4 4 3 4 4 4 4 4 4 3
3 3 3 2 1 1 2 1 1 2 2 1 2 2 2 2 2 2 3 4 3 4 3 3 3 4 4 4 3 3 3 3 3 3 4 4 4 4 4 4 4 4 4 3
3 3 3 2 2 1 2 1 1 1 1 2 2 2 2 3 3 3 3 3 2 4 3 3 4 5 6 3 3 3 3 3 3 3 3 4 4 4 4 4 4 4 4 3
3 3 2 2 2 1 2 2 2 1 1 0 0 1 1 1 1 2 2 3 3 4 2 3 5 6 6 3 3 3 3 3 3 3 3 3 3 3 4 4 4 3 4 4
3 3 3 3 2 1 2 1 2 2 1 1 1 1 1 2 2 2 1 2 3 3 2 3 5 6 4 3 3 3 3 4 4 4 3 3 3 4 4 4 4 4 4 4
2 2 2 2 2 2 1 1 0 1 1 1 2 2 1 1 1 1 1 1 2 2 1 1 2 3 3 3 3 3 3 3 3 3 4 4 4 4 4 4 5 4 4 4
3 3 2 2 2 2 1 1 1 1 1 1 1 2 1 0 0 1 1 0 1 1 1 1 2 2 2 2 2 2 2 2 2 3 3 3 3 4 4 5 4 4 4 4
Wind_Direction
237 249 245 255 260 233 181 182 185 207 203 221 215 198 187 178 175 156 155 158 166 169 171 173 170 169 169 169 167 169 171 176 185 184 176 174 177 181 181 181 183 181 177 185
331 320 319 311 287 235 209 184 188 182 218 229 206 175 169 174 171 167 167 167 170 172 170 173 174 171 169 169 167 163 167 179 180 175 173 179 185 184 182 186 182 175 183 188
292 310 1 308 265 212 218 212 171 189 220 202 168 165 177 179 179 184 184 175 173 173 172 176 179 169 168 171 162 164 172 175 175 175 176 182 185 180 184 187 183 184 189 191
206 21 245 245 255 130 107 45 114 152 191 171 180 181 176 169 161 180 185 181 178 173 169 168 161 152 153 154 159 168 172 174 177 176 179 181 180 186 190 185 184 189 193 193
147 198 269 295 311 108 114 352 24 99 89 97 113 85 47 145 145 162 170 171 176 174 168 158 155 154 150 155 161 164 172 178 181 178 179 180 186 192 190 184 191 196 189 187
157 177 231 256 295 299 96 1 339 84 105 99 90 96 254 210 128 125 129 144 155 151 140 144 162 154 151 161 166 179 185 184 181 178 179 187 194 193 186 180 186 182 188 190
185 207 252 272 308 23 87 243 294 86 131 133 151 192 212 160 123 130 127 128 134 138 143 157 157 150 156 167 184 189 180 176 179 180 183 184 183 180 172 171 168 176 187 199
162 188 249 309 14 87 217 245 310 89 134 138 152 142 118 129 131 125 121 121 128 136 154 159 152 147 156 184 195 177 170 173 177 179 181 171 165 170 167 164 169 182 189 207
185 211 246 298 157 218 167 103 58 109 148 143 117 118 124 136 135 136 137 132 130 148 156 159 162 158 165 190 177 169 172 180 177 175 177 168 167 171 169 171 179 184 189 209
359 285 312 340 354 348 21 27 321 144 121 114 118 135 124 132 139 142 142 141 140 151 156 164 172 171 182 180 170 165 171 176 175 173 176 174 172 173 176 184 186 188 196 208
299 289 336 348 346 338 349 7 23 22 85 136 137 143 143 143 156 161 153 152 147 156 165 172 172 173 184 173 161 163 169 173 175 174 172 169 169 182 192 203 196 191 198 197
235 245 234 274 293 329 348 338 333 352 9 71 147 154 152 161 172 159 152 143 141 155 168 176 176 179 183 181 168 162 166 172 172 168 168 164 161 148 11 199 209 203 200 197
227 249 249 268 295 314 311 304 302 261 170 149 158 150 155 168 171 156 153 149 158 168 175 175 177 189 188 183 175 169 171 173 170 170 173 173 174 170 176 344 10 205 213 210
256 284 301 290 288 300 310 308 319 348 44 109 156 145 146 146 149 152 171 181 171 163 164 161 153 181 209 196 180 173 172 177 174 177 180 182 186 185 180 182 198 258 259 215
263 238 240 265 285 305 313 313 331 353 355 1 57 138 145 150 169 189 195 181 160 158 172 168 167 185 194 199 177 171 168 173 177 183 181 183 183 179 179 185 187 191 208 241
263 266 272 289 293 305 313 306 277 290 315 333 265 190 177 176 182 191 191 170 166 193 202 188 196 202 187 183 174 176 181 182 177 181 177 180 184 182 180 181 183 184 198 201
248 266 268 272 277 280 273 267 239 221 224 221 217 201 178 158 160 183 191 183 185 201 199 191 203 198 184 178 178 184 182 182 184 179 183 185 188 190 186 185 187 191 206 200
226 235 237 237 246 260 274 277 249 234 233 234 226 186 175 170 182 199 199 180 171 202 219 204 196 181 176 178 178 179 178 183 183 181 184 191 193 192 188 187 190 194 204 196
248 250 256 261 265 272 282 283 257 246 250 239 215 199 191 189 191 194 185 172 179 217 243 221 188 175 180 190 183 185 184 185 190 195 193 193 190 188 186 186 188 191 187 182
289 274 260 265 279 285 282 286 278 271 263 231 211 202 196 203 193 187 177 188 211 217 219 202 188 185 195 199 191 187 191 193 194 197 195 194 193 192 190 185 181 184 186 188
327 310 295 283 287 290 290 289 304 300 284 220 193 195 202 213 202 185 181 217 243 215 200 195 193 197 198 196 189 188 192 195 199 201 198 193 189 189 188 182 180 183 185 189
336 340 326 304 287 308 301 290 256 272 271 229 203 187 186 209 213 206 211 216 221 198 195 199 198 197 194 190 191 194 199 201 204 205 201 196 192 191 189 183 182 187 191 194
327 331 322 306 282 266 286 299 287 273 262 231 203 185 190 206 203 193 228 240 205 192 193 205 201 192 191 191 194 201 205 205 206 206 203 200 197 191 188 188 188 187 190 196
334 330 319 305 306 342 336 317 316 333 331 308 217 190 183 192 248 239 215 200 200 202 208 206 196 195 193 200 202 206 209 210 210 209 203 199 194 189 189 189 190 190 189 191
322 324 334 341 339 290 264 287 341 354 0 348 318 293 254 195 197 218 202 196 201 206 229 216 202 198 197 205 205 206 209 209 208 202 198 196 199 195 191 193 192 188 186 190
318 313 298 291 292 288 273 258 258 298 326 317 305 293 289 264 200 178 165 194 192 204 217 212 203 204 206 205 205 208 211 207 205 203 201 201 200 198 199 198 192 189 189 192
321 317 320 330 333 317 283 249 229 238 239 232 279 287 284 272 154 167 176 194 203 217 215 199 187 189 194 198 196 195 197 195 191 192 196 201 201 198 195 193 190 186 183 181